Powrót do katalogu

CZ-6A DEB

AktywnyPO
NORAD 61155·DEBRIS·🇨🇳 China

Wystrzelony Aug 6, 2024 z Taiyuan Satellite Launch Center

Loading…

Następne Przeloty (najbliższe 24 godziny)

TLE

ŚwieżeSource: Space-Track

Epoka: Sep 13, 2026, 22:11 UTC

1 61155U 24140QZ  26256.92480760  .00001491  00000-0  57976-3 0  9998
2 61155  88.5052 218.8993 0099748 171.4893 188.8022 14.26631479107198

Śledź CZ-6A DEB w czasie rzeczywistym z AllMySat

Download on the App Store